This demonstration page uses our WeatherBlox Daily Observations layout. Learn more.

Left ArrowRight Arrow

39.08367, -84.50855

Hourly Observations for December 29, 2016

Temp ( °F °C ) Dew Point ( °F °C ) Humidity (%) Winds ( mph kmh ) Pressure ( in mb ) Visibility ( mi km ) Precip ( " mm )
12:09 am 00:09 Cloudy 41 5 39 3.9 93 93 Calm 29.85 1011 10 16 0.00 0.00
12:25 am 00:25 Cloudy 41 5 39 3.9 93 93 SE 3 6 29.85 1011 10 16 0.00 0.00
12:53 am 00:53 Cloudy 42 5.6 39 3.9 89 89 Calm 29.83 1010 10 16 0.00 0.00
1:53 am 01:53 Cloudy 44 6.7 41 5 89 89 W 9 15 29.83 1010 10 16 0.00 0.00
2:53 am 02:53 Mostly Cloudy 43 6.1 40 4.4 89 89 W 12 19 29.83 1010 10 16 0.00 0.00
3:30 am 03:30 Mostly Cloudy 45 7 37 3 76 76 W 13 20 29.88 1012 10 16 0.00 0.00
3:53 am 03:53 Mostly Cloudy 43 6.1 38 3.3 82 82 W 10 17 29.85 1011 10 16 0.00 0.00
4:53 am 04:53 Mostly Clear 42 5.6 35 1.7 76 76 W 14 22 29.86 1011 10 16 0.00 0.00
5:53 am 05:53 Clear 40 4.4 31 -0.6 70 70 W 14 22 29.89 1012 10 16 0.00 0.00
6:53 am 06:53 Clear 38 3.3 29 -1.7 70 70 WSW 12 19 29.90 1013 10 16 0.00 0.00
7:53 am 07:53 Clear 36 2.2 28 -2.2 73 73 WSW 8 13 29.91 1013 10 16 0.00 0.00
8:53 am 08:53 Sunny 38 3.3 29 -1.7 70 70 SW 15 24 29.92 1013 10 16 0.00 0.00
9:53 am 09:53 Sunny 40 4.4 30 -1.1 68 68 W 13 20 29.94 1014 10 16 0.00 0.00
10:53 am 10:53 Mostly Sunny 42 5.6 29 -1.7 60 60 W 17 28 29.94 1014 10 16 0.00 0.00
11:53 am 11:53 Mostly Sunny 44 6.7 29 -1.7 55 55 WSW 16 26 29.94 1014 10 16 0.00 0.00
12:53 pm 12:53 Partly Cloudy 43 6.1 27 -2.8 53 53 W 12 19 29.94 1014 10 16 0.00 0.00
1:53 pm 13:53 Mostly Sunny 46 7.8 26 -3.3 46 46 W 15 24 29.92 1013 10 16 0.00 0.00
2:53 pm 14:53 Sunny 46 7.8 25 -3.9 44 44 WSW 20 31 29.91 1013 10 16 0.00 0.00
3:53 pm 15:53 Mostly Sunny 44 6.7 27 -2.8 51 51 WSW 20 31 29.93 1014 10 16 0.00 0.00
4:53 pm 16:53 Mostly Cloudy 43 6.1 26 -3.3 51 51 W 18 30 29.96 1014 10 16 0.00 0.00
5:53 pm 17:53 Cloudy 41 5 25 -3.9 53 53 W 21 33 29.98 1015 10 16 0.00 0.00
6:53 pm 18:53 Cloudy 39 3.9 24 -4.4 55 55 W 22 35 30.00 1016 10 16 0.00 0.03
7:53 pm 19:53 Cloudy 37 2.8 28 -2.2 70 70 W 17 28 30.02 1017 10 16 0.00 0.03
8:49 pm 20:49 Cloudy with Light Snow 36 2 30 -1 81 81 NW 16 26 30.03 1017 2 3 0.00 0.03
8:53 pm 20:53 Windy with Snow Likely 33 0.6 31 -0.6 92 92 WNW 21 33 30.02 1017 2 3 0.01 0.25
9:45 pm 21:45 Cloudy 35 1.7 33 0.6 93 93 W 21 33 30.00 1016 10 16 0.01 0.25
9:53 pm 21:53 Cloudy 34 1 N/A N/A W 15 24 30.02 1017 10 16 0.01 0.25
10:53 pm 22:53 Cloudy 36 2 N/A N/A W 15 24 30.02 1017 10 16 0.00 0.03
11:53 pm 23:53 Cloudy 36 2 N/A N/A W 10 17 30.02 1017 10 16 0.00 0.00

Powered by AerisWeather